Location: Gazon
(48.1318°N, 1.2708°W)
Time: 23:14:32
(UTC+00:00)

ATLAS CENTAUR R/B - Pass Details

Date: 18 September 2020
Orbit: 479 x 667 km, 64.7° (Epoch: 12 October)

Event Time Altitude Azimuth Distance (km) Brightness Sun altitude
Rises 19:26:13 0° 276° (W) 2,645 6.6 -13.2°
Reaches altitude 10° 19:29:35 10° 307° (NW) 1,722 5.1 -13.8°
Maximum altitude 19:31:16 12° 333° (NNW) 1,557 4.3 -14.0°
Drops below altitude 10° 19:32:56 10° 359° (N) 1,695 4.1 -14.3°
Sets 19:36:12 0° 31° (NNE) 2,558 4.6 -14.8°
